Preview of NWS' New Version of Forecast
This preview is not operational and should not be used for support decisions.

Regional Weather Roundup (RWR)

Issued by National Weather Service (NWS)

                            
000
ASUS45 KABQ 172201
RWRNM 
NEW MEXICO REGIONAL WEATHER ROUNDUP
NATIONAL WEATHER SERVICE ALBUQUERQUE NM
400 PM MDT WED APR 17 2019

NOTE: "FAIR" MEANS FEW OR NO CLOUDS BELOW 12,000 FEET AGL WITH NO
       SIGNIFICANT WEATHER OR OBSTRUCTIONS TO VISION.

      THIS PRODUCT IS RELEASED AS TWO VERSIONS.  ONE VERSION NEAR
      THE TOP OF THE HOUR CONTAINING PRELIMINARY DATA FROM ALBUQUERQUE
      AND OTHER STATIONS.  A FINAL VERSION WITH ADDITIONAL DATA IS 
      ISSUED ABOUT 10 MINUTES AFTER THE HOUR.
 
NMZ501-503-504-510>518-172300-
NORTHWEST PLATEAU/NORTHCENTRAL MOUNTAINS
  
CITY           SKY/WX    TMP DP  RH WIND       PRES   REMARKS
FARMINGTON     PTSUNNY   69  32  25 W28G45    29.88S                  
LOS ALAMOS       N/A     47  36  66 NW6       29.96S                  
SANTA FE       FAIR      54  36  50 NW8       29.91R                  
TAOS           PTSUNNY   52  33  48 SE17      29.93S                  

$$
NMZ402-403-502-505>509-172300-
WESTCENTRAL MOUNTAINS/SOUTHWEST MOUNTAINS
  
CITY           SKY/WX    TMP DP  RH WIND       PRES   REMARKS
GALLUP         PTSUNNY   57  40  52 W17       30.00S                  
GRANTS         CLOUDY    57  40  53 NW21G31   29.96S                  
SILVER CITY    CLOUDY    53  42  64 NW21      30.00S                  

$$
NMZ407-409-411-412-172300-
SOUTHERN DESERTS
  
CITY           SKY/WX    TMP DP  RH WIND       PRES   REMARKS
DEMING         FAIR      63  38  39 W30G40    29.95F                  
LAS CRUCES     PTSUNNY   62  35  37 W25G39    29.93S                  
HOLLOMAN AFB   LGT RAIN  52  47  83 NE8       29.93R                  
ALAMOGORDO     LGT RAIN  50  48  93 NE12      29.94R                  
T OR C         CLOUDY    58  39  49 N14G30    29.91R                  

$$
NMZ519>523-172300-
CENTRAL VALLEYS/CENTRAL HIGHLANDS
  
CITY           SKY/WX    TMP DP  RH WIND       PRES   REMARKS
ALBUQUERQUE    LGT RAIN  51  43  74 SE6       29.92R                  
DOUBLE EAGLE   TSTM      45  43  93 S8        29.92R                  
CLINES CORNERS LGT RAIN  44  39  82 SE9       29.95R                  
BELEN          TSTM      51  41  69 NW10      29.91R                  
SOCORRO        NOT AVBL                                               

$$
NMZ524>526-539-540-172300-
SOUTHCENTRAL MOUNTAINS
  
CITY           SKY/WX    TMP DP  RH WIND       PRES   REMARKS
RUIDOSO        PTSUNNY   46  36  66 W20G31    29.91F                  

$$
NMZ527>531-172300-
NORTHEAST HIGHLANDS/NORTHEAST PLAINS
  
CITY           SKY/WX    TMP DP  RH WIND       PRES   REMARKS
LAS VEGAS      LGT RAIN  41  38  89 NE20      29.97R                  
RATON          CLOUDY    48  38  68 S17       29.92R                  
CLAYTON        FAIR      58  43  57 N22G29    29.82F                  

$$
NMZ532>537-172300-
EASTCENTRAL PLAINS
  
CITY           SKY/WX    TMP DP  RH WIND       PRES   REMARKS
SANTA ROSA     DRIZZLE   56  37  47 N20G25    29.81S                  
TUCUMCARI      TSTM      51  47  86 NW22G31   29.81R FOG              
CANNON AFB     NOT AVBL                                               
CLOVIS AIRPORT TSTM      53  39  59 W22G28    29.77R                  

$$
NMZ028-029-538-172300-
SOUTHEAST PLAINS
  
CITY           SKY/WX    TMP DP  RH WIND       PRES   REMARKS
ROSWELL        CLOUDY    62  45  53 CALM      29.78S                  
ARTESIA        FAIR      68  36  30 W18       29.78S                  
CARLSBAD       FAIR      73  31  21 SW30G41   29.77F                  
HOBBS          MOSUNNY   72  30  21 W29G40    29.78F                  


$$